GFSNIL_prec_cthk_060.txt.gz
RH
67 71 64 55 56 63 70 78 80 81 80 88 92 92 88 88 79 69 61 62 64 62
67 67 59 60 69 72 78 80 87 83 86 87 91 84 87 79 75 69 65 64 62 62
62 60 64 73 74 81 88 90 90 95 87 89 78 77 77 73 77 72 66 66 67 62
58 67 71 81 89 89 96 88 97 94 91 90 83 77 76 77 76 72 70 67 61 51
67 76 79 84 87 96 93 94 97 88 77 80 82 83 83 80 77 74 68 59 45 35
84 83 88 90 89 94 92 87 83 85 89 81 83 84 84 82 74 68 50 37 31 30
85 88 92 96 92 85 81 82 93 83 85 88 86 84 81 73 62 43 34 27 26 24
81 88 94 91 76 92 95 83 79 92 94 93 92 83 73 59 31 27 27 26 26 27
78 87 81 79 78 84 73 88 91 94 97 96 80 66 48 25 23 26 27 27 29 30
75 76 78 78 79 79 89 96 94 92 82 72 59 38 23 23 25 27 27 30 31 33
69 77 77 79 96 91 92 93 87 77 63 50 28 21 22 25 27 27 30 34 35 43
71 76 88 90 91 88 83 77 66 51 34 21 19 20 24 27 28 31 34 40 50 50
83 90 90 87 86 80 71 56 39 23 19 19 18 22 25 28 33 35 44 51 56 54
85 82 84 80 71 59 42 29 22 19 19 19 22 24 27 32 43 49 51 52 52 56

GFSNIL_prec_cthk_063.txt.gz
RH
84 81 75 77 78 81 68 67 75 72 82 88 90 86 83 93 90 83 70 66 68 67
71 60 70 80 85 69 73 80 81 84 91 94 96 89 89 94 88 75 72 73 71 66
63 68 75 80 80 79 84 86 89 94 96 96 97 95 89 88 82 79 76 72 69 66
68 73 82 85 86 89 88 90 95 97 94 95 91 84 90 87 79 79 78 71 67 54
74 78 80 86 93 94 94 98 97 97 98 90 93 90 81 82 86 83 76 68 54 37
86 88 88 91 95 94 99 99 95 95 98 98 98 86 83 87 86 77 70 54 36 20
79 86 90 92 97 89 96 97 97 97 98 96 90 86 90 85 81 74 52 33 22 20
72 68 74 71 75 86 90 91 91 90 82 83 91 93 92 83 72 53 27 22 21 22
59 56 56 72 72 81 80 83 82 85 89 91 90 84 76 63 43 26 23 22 23 25
52 61 64 71 77 72 84 82 86 87 86 81 76 69 54 33 25 23 23 23 26 29
64 66 69 71 81 79 87 88 80 77 74 67 55 39 25 21 22 23 24 26 31 35
66 67 72 77 83 84 81 77 74 68 57 43 29 22 21 22 22 24 25 30 36 43
66 76 80 79 80 75 70 63 56 45 35 28 24 23 23 25 28 30 32 33 37 43
74 74 77 72 65 59 54 47 40 33 28 25 24 23 24 29 36 39 39 38 35 35

GFSNIL_prec_cthk_069.txt.gz
RH
77 78 81 93 80 77 77 82 86 89 87 96 97 93 86 87 84 89 96 96 96 95
70 70 74 74 66 68 74 84 89 91 90 99 97 91 87 92 91 97 97 97 97 97
63 58 63 62 66 75 81 87 93 97 96 98 93 92 96 97 98 97 98 98 96 96
59 59 63 66 76 76 77 87 93 97 98 93 92 96 98 99 98 96 98 98 96 94
65 66 70 75 72 71 78 85 88 96 96 93 97 99 98 97 98 94 87 94 95 92
70 76 77 73 71 70 71 72 79 93 87 93 88 88 95 91 93 85 84 85 86 84
64 67 69 71 74 71 68 68 68 68 66 62 61 66 72 77 78 77 80 83 79 69
71 72 73 74 72 68 69 70 65 62 63 64 70 73 74 78 82 81 77 66 60 59
77 76 74 69 64 65 62 63 59 62 64 69 69 71 69 67 65 61 53 50 51 44
72 70 64 62 60 55 56 58 64 65 64 64 67 69 62 54 46 41 43 41 41 43
59 55 52 51 52 55 60 64 66 68 73 68 63 54 46 41 39 39 40 41 43 43
47 48 49 52 57 62 63 65 67 66 62 56 51 45 44 42 39 39 40 39 35 33
47 50 56 57 59 61 62 64 62 59 53 49 48 50 47 40 39 34 31 28 27 24
53 56 56 59 61 60 60 58 57 49 48 47 49 46 42 37 34 31 25 21 19 19

GFSNIL_prec_cthk_072.txt.gz
RH
72 73 74 75 74 73 73 66 69 74 78 88 93 96 97 98 95 98 90 89 93 95
65 68 68 69 66 66 64 65 71 77 83 90 94 97 99 97 97 98 96 94 99 97
64 67 69 64 70 73 67 68 81 76 78 86 92 96 97 98 94 95 97 99 99 98
67 67 70 69 69 71 73 79 79 73 76 79 79 85 93 96 97 97 98 97 96 98
72 79 81 78 79 79 83 82 72 72 74 70 68 72 73 71 70 80 77 73 76 77
72 73 73 75 74 75 76 74 73 76 73 69 66 69 64 64 63 69 72 72 72 77
72 71 68 70 77 76 77 82 80 76 69 70 67 68 63 65 69 71 74 76 78 74
66 65 76 81 82 84 83 79 74 69 65 61 69 63 67 69 71 73 75 71 64 58
68 77 80 84 83 83 80 73 65 63 63 60 62 66 66 68 68 63 57 52 48 46
78 80 80 80 76 73 68 62 58 58 59 62 60 61 65 62 55 47 42 40 40 39
72 72 69 65 63 56 53 54 56 58 62 63 63 64 62 56 47 43 42 40 43 44
63 61 59 54 50 50 54 57 60 63 63 62 59 57 54 48 46 44 42 41 38 34
57 55 48 48 52 55 57 60 62 63 60 57 54 52 51 49 46 40 38 37 34 30
48 48 48 53 56 57 58 59 61 57 55 54 52 50 48 45 43 40 37 34 31 28

GFSNIL_prec_cthk_075.txt.gz
RH
71 67 61 61 61 64 71 75 78 75 72 73 79 81 83 88 90 94 99 98 99 97
63 61 60 58 57 61 67 81 81 72 73 82 86 79 82 84 85 87 92 98 98 96
60 65 63 62 59 64 83 76 75 76 79 88 77 74 77 80 72 76 86 93 85 92
54 59 69 68 72 84 90 83 84 80 84 81 72 75 77 73 66 66 63 64 63 66
65 74 93 96 96 87 91 84 73 80 84 76 79 80 72 64 62 64 66 66 68 74
84 68 77 91 91 81 77 77 87 83 81 84 81 77 65 69 60 70 67 69 69 71
65 66 75 70 67 66 70 79 79 83 82 81 77 68 65 62 67 69 68 68 72 74
53 57 66 68 69 74 79 83 81 79 80 76 69 60 65 69 66 67 69 73 72 67
55 61 62 66 73 83 86 84 80 78 76 65 61 62 63 64 66 69 69 65 61 58
55 59 64 69 73 75 76 78 75 72 63 60 58 61 63 65 65 62 57 50 45 42
58 63 65 66 70 71 67 64 59 51 51 53 56 63 64 64 59 54 51 48 47 46
57 61 62 60 60 59 57 53 49 50 53 57 59 61 62 59 56 55 53 50 47 42
51 54 54 55 56 54 50 49 51 54 56 58 60 59 57 57 57 54 49 47 45 43
50 53 55 52 48 47 51 55 56 58 60 60 57 58 59 58 55 53 50 48 47 45

GFSNIL_prec_cthk_078.txt.gz
RH
59 60 62 62 62 60 58 60 64 69 81 85 77 72 81 83 77 77 84 77 92 78
53 60 62 65 70 57 59 61 67 76 86 87 80 80 88 85 74 75 73 85 70 66
50 53 63 73 69 68 64 69 81 91 95 94 92 95 91 77 76 80 76 70 63 60
57 61 67 71 78 85 88 92 89 97 94 94 94 91 84 77 81 75 65 61 55 60
61 74 80 85 89 87 93 95 84 82 93 94 90 83 83 86 79 70 60 60 59 70
66 78 76 75 75 88 89 83 80 87 92 84 78 83 85 83 79 67 60 57 64 69
60 62 67 74 76 79 74 73 80 84 84 82 82 83 79 77 70 56 61 67 68 64
52 52 58 61 63 65 71 70 76 81 82 82 77 75 75 72 57 60 68 67 65 68
43 46 50 56 60 62 66 66 68 72 73 76 77 75 66 59 63 67 64 67 71 71
50 49 50 54 61 63 66 69 70 75 82 79 72 64 63 65 61 64 68 67 64 60
48 48 51 58 62 64 67 72 75 70 67 65 65 62 60 60 63 62 63 60 55 52
48 49 55 58 61 67 62 58 61 62 60 57 55 57 61 66 67 66 61 58 56 55
54 59 61 58 55 56 56 57 57 55 53 57 62 67 71 73 69 66 62 60 57 55
53 53 56 58 57 56 57 55 53 56 59 64 71 77 76 71 67 63 61 58 57 55

GFSNIL_prec_cthk_084.txt.gz
RH
49 53 56 57 58 58 57 57 55 55 55 57 60 64 68 77 85 91 95 94 93 87
46 51 54 54 55 53 52 53 56 60 60 59 57 62 70 77 84 82 99 94 96 93
45 46 49 48 50 53 57 61 72 78 85 90 91 84 84 85 89 98 94 98 95 93
52 54 55 59 66 68 73 77 80 86 91 96 97 88 84 90 96 93 93 90 89 95
69 72 69 72 73 77 76 79 83 89 93 95 95 83 77 76 81 84 84 88 92 92
71 73 75 75 78 75 78 81 85 88 90 98 89 89 83 77 73 75 82 93 87 84
48 51 51 58 59 66 70 70 71 74 80 90 90 91 81 74 76 76 81 85 85 88
38 37 40 46 51 60 63 66 68 71 73 74 74 75 80 72 71 78 82 89 94 88
38 39 41 49 57 62 64 68 67 62 63 65 68 72 69 72 76 79 97 85 81 80
46 50 49 51 55 58 61 60 59 59 60 61 67 71 73 74 85 87 77 80 81 72
49 50 52 52 60 64 63 60 58 59 61 68 72 79 81 87 80 77 81 73 68 72
50 53 56 61 68 68 65 56 61 64 70 75 80 84 82 81 80 80 79 78 77 82
60 64 65 66 65 60 63 67 74 76 76 75 74 76 76 79 85 86 85 84 87 89
61 61 63 62 67 70 72 71 73 75 76 76 77 80 84 87 90 91 92 93 96 94

GFSNIL_prec_cthk_087.txt.gz
RH
49 51 51 54 55 54 56 60 58 58 60 61 62 61 63 64 63 64 69 74 81 87
47 50 54 57 57 58 58 61 59 56 56 61 63 67 67 71 71 73 75 77 85 91
41 43 46 49 51 53 53 55 57 55 61 66 67 70 73 74 73 79 83 84 86 93
44 44 46 45 47 52 57 62 62 65 67 70 73 78 84 91 93 91 87 90 98 96
53 52 53 57 60 62 63 65 65 69 75 82 89 95 97 96 83 84 85 76 86 83
66 66 67 72 74 76 77 79 77 79 83 91 92 91 97 91 89 87 87 77 74 75
49 57 54 63 62 66 74 77 77 79 80 79 78 81 87 87 89 85 81 76 72 74
44 42 43 47 51 54 56 59 69 76 73 74 76 75 75 75 73 74 79 73 71 75
44 45 45 44 45 48 52 58 64 69 71 72 67 64 60 62 67 69 74 72 71 87
47 48 51 53 56 58 58 59 62 62 64 64 60 59 61 61 65 70 77 78 84 93
47 47 52 57 57 59 59 58 63 66 66 66 64 64 63 67 72 78 83 86 90 79
49 51 53 57 60 61 63 67 70 69 67 68 70 72 77 81 86 88 87 91 96 89
50 52 53 57 61 65 68 69 68 70 75 77 81 83 85 86 88 89 93 98 97 93
65 64 63 65 68 69 71 75 78 83 84 85 86 87 88 90 91 91 93 94 96 97

GFSNIL_prec_cthk_090.txt.gz
RH
49 49 53 55 57 60 63 65 69 70 64 61 63 63 65 62 65 73 72 74 73 74
47 51 54 56 59 58 59 61 62 62 60 60 62 63 66 69 72 75 73 70 72 75
47 49 52 54 56 56 57 59 60 61 58 61 62 68 74 74 76 74 77 81 83 82
48 48 49 51 52 54 54 55 58 61 64 66 68 72 74 77 75 78 81 84 86 81
53 55 54 55 56 56 55 59 62 65 67 69 71 72 73 72 77 86 89 92 86 82
52 52 55 58 58 61 64 68 67 67 71 69 69 73 76 82 88 89 89 90 78 82
50 53 56 55 55 60 72 70 74 74 75 75 78 86 88 85 83 86 84 83 79 85
51 52 52 51 56 54 52 52 57 67 74 74 82 84 84 83 86 86 77 74 73 77
43 47 49 50 49 51 51 55 59 59 62 66 74 76 76 76 78 76 73 71 72 78
43 46 48 49 50 52 53 57 57 60 62 62 64 64 65 68 69 69 67 67 72 75
50 52 52 49 51 57 64 64 61 62 64 63 66 71 74 73 72 75 75 78 79 85
52 54 57 56 59 64 65 69 70 69 70 73 77 76 75 75 79 80 82 84 89 91
61 62 60 58 59 61 63 67 72 76 76 78 76 77 80 84 88 86 88 96 93 98
64 67 66 64 68 70 71 76 77 77 79 80 82 84 86 87 93 93 87 91 92 93

GFSNIL_prec_cthk_093.txt.gz
RH
56 58 61 67 70 77 78 80 80 76 75 77 74 71 69 74 67 71 73 66 67 73
49 51 54 58 61 62 63 66 69 69 67 69 68 67 64 65 65 71 73 70 71 76
46 49 52 55 57 58 59 60 65 64 66 64 65 61 60 60 65 71 74 74 78 83
46 49 51 53 55 55 61 60 58 61 64 64 63 67 69 67 68 72 76 78 81 80
49 54 58 60 59 59 59 60 60 60 63 62 65 72 74 74 74 74 76 75 73 74
45 47 53 58 61 62 64 64 68 69 68 70 70 74 77 75 73 75 80 79 81 82
47 49 49 49 52 56 60 59 63 72 74 75 78 79 78 81 79 84 84 86 89 90
47 48 49 50 51 51 50 58 63 63 67 66 66 75 74 74 75 82 89 92 88 84
43 47 51 52 52 53 53 57 58 59 57 61 62 65 68 74 78 79 79 78 76 76
43 47 46 48 51 53 56 59 57 55 58 64 70 71 73 74 73 72 74 76 78 79
45 44 46 50 54 52 53 56 60 66 71 73 72 72 75 77 76 77 80 84 83 82
55 52 51 50 53 56 57 60 63 68 69 70 72 77 79 80 83 84 82 81 85 87
62 59 59 60 62 64 64 63 64 66 70 74 77 78 79 81 86 84 84 88 92 93
69 68 68 67 70 71 72 69 66 73 77 76 77 81 82 86 89 90 90 93 91 94

GFSNIL_prec_cthk_096.txt.gz
RH
51 53 54 56 67 77 83 86 90 89 85 81 82 86 85 76 68 70 72 71 70 71
47 49 49 53 56 62 68 74 78 75 74 72 70 78 71 67 70 72 79 78 75 78
46 46 49 53 54 55 55 58 61 63 65 65 70 69 65 71 75 69 69 75 77 75
46 48 48 47 50 51 53 55 56 57 58 59 60 61 64 69 74 72 67 72 75 76
44 51 54 57 56 54 55 54 53 55 59 61 64 67 70 74 78 81 80 80 81 78
44 47 53 59 60 61 62 62 66 66 68 73 74 75 76 76 78 79 79 83 85 85
41 45 50 53 55 59 61 63 68 66 63 67 74 80 78 80 84 88 88 91 92 87
40 41 45 46 48 50 53 56 58 59 60 66 72 71 69 73 76 79 79 75 76 79
43 43 44 47 51 56 58 59 58 60 61 67 65 62 64 67 71 73 77 79 79 81
48 49 48 51 55 56 56 58 57 58 61 63 60 61 63 67 75 77 80 84 85 84
56 54 55 56 59 56 53 53 56 58 59 60 62 66 73 79 81 80 81 85 86 87
58 59 61 61 58 56 59 60 61 62 64 66 69 72 74 76 79 83 86 87 87 88
65 63 63 65 64 66 65 68 71 73 75 75 73 73 75 83 86 85 84 83 86 87
66 66 70 71 75 73 75 77 76 77 78 79 79 78 80 86 85 84 85 86 88 89

GFSNIL_prec_cthk_099.txt.gz
RH
57 59 62 67 71 78 87 91 90 89 92 93 90 90 91 90 88 85 85 79 76 76
53 52 52 55 67 76 81 84 88 89 89 85 85 82 83 81 81 81 79 76 74 74
48 52 53 52 57 64 70 77 84 84 78 75 70 69 71 75 75 80 78 79 78 75
45 48 50 52 52 55 56 58 62 64 64 64 67 68 67 67 71 73 72 71 72 74
44 47 52 52 50 48 48 50 52 54 56 59 58 59 59 60 66 69 71 76 80 82
41 46 49 51 54 58 58 59 61 64 64 65 66 64 66 70 74 74 77 82 83 86
43 43 45 51 54 55 58 61 64 66 67 65 65 65 69 77 81 82 83 85 86 85
44 44 42 45 49 53 55 56 57 56 58 60 59 59 69 71 73 78 76 72 70 71
45 44 44 45 45 47 48 53 55 57 61 63 61 60 68 69 70 71 72 75 79 79
47 49 49 49 49 51 52 55 55 55 57 59 59 60 66 72 77 78 81 85 88 84
52 54 58 56 55 57 57 58 58 58 60 62 63 62 65 71 76 81 87 86 82 88
59 57 61 63 62 64 66 67 66 67 69 71 74 75 77 79 81 83 83 82 88 91
71 65 61 65 70 70 71 75 76 77 80 83 86 86 86 87 88 88 90 91 90 89
76 75 73 71 74 79 81 78 81 81 85 88 91 91 92 93 94 96 95 93 92 94